| time (UTC) | temp F | wind direction | speed MPH | gust MPH | rain 1hr in | rain 24hr in | rain mn in | humidity % | barometer mb |
| 20260901113011 | 66 | 106 | 0.0 | 4.0 | 0.00 | 0.01 | 0.01 | 80 | 1008.2 |
| 20260901111511 | 65 | 200 | 0.0 | 5.0 | 0.00 | 0.01 | 0.01 | 82 | 1008.3 |
| 20260901110012 | 65 | 74 | 0.0 | 4.0 | 0.00 | 0.01 | 0.01 | 82 | 1008.3 |
| 20260901104511 | 65 | 122 | 0.0 | 0.0 | 0.00 | 0.01 | 0.01 | 82 | 1008.3 |
| 20260901103011 | 65 | 86 | 0.0 | 4.0 | 0.00 | 0.01 | 0.01 | 80 | 1008.3 |
| 20260901101508 | 66 | 101 | 0.0 | 4.0 | 0.00 | 0.01 | 0.01 | 77 | 1008.3 |
| 20260901100004 | 65 | 78 | 0.0 | 5.0 | 0.00 | 0.01 | 0.01 | 81 | 1008.2 |
| 20260901094502 | 63 | 55 | 0.0 | 0.0 | 0.00 | 0.01 | 0.01 | 84 | 1008.2 |
| 20260901093101 | 63 | 77 | 0.0 | 0.0 | 0.00 | 0.01 | 0.01 | 87 | 1008.2 |
| 20260901091558 | 63 | 57 | 0.0 | 5.0 | 0.00 | 0.01 | 0.01 | 86 | 1008.1 |
| 20260901090104 | 63 | 70 | 2.0 | 6.0 | 0.00 | 0.01 | 0.01 | 88 | 1008.0 |
| 20260901084554 | 62 | 72 | 0.0 | 7.0 | 0.00 | 0.01 | 0.01 | 91 | 1008.1 |
| 20260901083052 | 61 | 50 | 0.0 | 2.0 | 0.00 | 0.01 | 0.01 | 93 | 1008.1 |
| 20260901081558 | 61 | 337 | 0.0 | 3.0 | 0.00 | 0.01 | 0.01 | 96 | 1007.9 |
| 20260901080046 | 59 | 355 | 0.0 | 0.0 | 0.00 | 0.01 | 0.01 | 97 | 1007.9 |
| 20260901074544 | 58 | 327 | 0.0 | 2.0 | 0.00 | 0.01 | 0.01 | 97 | 1008.0 |
| 20260901073042 | 57 | 38 | 0.0 | 2.0 | 0.00 | 0.01 | 0.01 | 97 | 1008.0 |
| 20260901071540 | 57 | 339 | 0.0 | 0.0 | 0.00 | 0.01 | 0.01 | 97 | 1007.9 |
| 20260901070038 | 56 | 342 | 0.0 | 0.0 | 0.00 | 0.01 | 0.01 | 97 | 1007.8 |
| 20260901064537 | 56 | 335 | 0.0 | 0.0 | 0.00 | 0.01 | 0.01 | 97 | 1007.7 |
| 20260901063035 | 56 | 334 | 0.0 | 0.0 | 0.00 | 0.01 | 0.01 | 97 | 1007.7 |
| 20260901061532 | 55 | 335 | 0.0 | 0.0 | 0.00 | 0.01 | 0.01 | 97 | 1007.6 |
| 20260901060030 | 54 | 324 | 0.0 | 0.0 | 0.00 | 0.01 | 0.01 | 97 | 1007.6 |
| 20260901054527 | 54 | 315 | 0.0 | 0.0 | 0.00 | 0.01 | 0.01 | 97 | 1007.5 |
| 20260901053039 | 53 | 316 | 0.0 | 1.0 | 0.00 | 0.01 | 0.01 | 97 | 1007.4 |
| 20260901051523 | 52 | 310 | 0.0 | 0.0 | 0.01 | 0.01 | 0.01 | 97 | 1007.2 |
| 20260901050023 | 52 | 289 | 0.0 | 0.0 | 0.01 | 0.01 | 0.01 | 96 | 1007.2 |
| 20260901044521 | 51 | 287 | 0.0 | 0.0 | 0.01 | 0.01 | 0.01 | 96 | 1007.1 |
| 20260901043020 | 51 | 287 | 0.0 | 0.0 | 0.01 | 0.01 | 0.01 | 96 | 1006.9 |
| 20260901041519 | 51 | 287 | 0.0 | 0.0 | 0.00 | 0.00 | 0.00 | 96 | 1006.9 |
| 20260901040018 | 50 | 285 | 0.0 | 0.0 | 0.00 | 0.00 | 0.00 | 96 | 1006.9 |
| 20260901034524 | 50 | 285 | 0.0 | 0.0 | 0.00 | 0.00 | 0.00 | 96 | 1006.9 |
| 20260901033018 | 49 | 285 | 0.0 | 0.0 | 0.00 | 0.00 | 0.00 | 96 | 1006.7 |
| 20260901031521 | 49 | 285 | 0.0 | 0.0 | 0.00 | 0.00 | 0.00 | 95 | 1006.7 |
| 20260901030013 | 49 | 283 | 0.0 | 0.0 | 0.00 | 0.00 | 0.00 | 95 | 1006.7 |
| 20260901024513 | 49 | 283 | 0.0 | 0.0 | 0.00 | 0.00 | 0.00 | 95 | 1006.6 |
| 20260901023016 | 49 | 259 | 0.0 | 0.0 | 0.00 | 0.00 | 0.00 | 95 | 1006.6 |
| 20260901021511 | 49 | 233 | 0.0 | 0.0 | 0.00 | 0.00 | 0.00 | 95 | 1006.5 |
| 20260901020007 | 50 | 233 | 0.0 | 0.0 | 0.00 | 0.00 | 0.00 | 95 | 1006.5 |
| 20260901014506 | 50 | 231 | 0.0 | 0.0 | 0.00 | 0.01 | 0.00 | 95 | 1006.2 |
| 20260901013006 | 50 | 231 | 0.0 | 0.0 | 0.00 | 0.01 | 0.00 | 95 | 1006.1 |
| 20260901011510 | 50 | 229 | 0.0 | 0.0 | 0.00 | 0.01 | 0.00 | 94 | 1006.1 |
| 20260901010004 | 50 | 221 | 0.0 | 0.0 | 0.00 | 0.01 | 0.00 | 94 | 1006.0 |
| 20260901004503 | 50 | 221 | 0.0 | 0.0 | 0.00 | 0.01 | 0.00 | 93 | 1006.0 |
| 20260901003002 | 50 | 221 | 0.0 | 0.0 | 0.00 | 0.01 | 0.00 | 92 | 1006.1 |
| 20260901001600 | 50 | 221 | 0.0 | 0.0 | 0.00 | 0.01 | 0.00 | 93 | 1006.0 |
| 20260901000057 | 51 | 221 | 0.0 | 0.0 | 0.00 | 0.01 | 0.00 | 92 | 1006.0 |
| 20260831234558 | 51 | 221 | 0.0 | 0.0 | 0.00 | 0.01 | 0.00 | 92 | 1006.0 |
| 20260831233056 | 51 | 221 | 0.0 | 0.0 | 0.00 | 0.01 | 0.00 | 93 | 1006.0 |
| 20260831231556 | 52 | 221 | 0.0 | 0.0 | 0.00 | 0.01 | 0.00 | 93 | 1006.0 |
| 20260831230106 | 52 | 221 | 0.0 | 0.0 | 0.00 | 0.01 | 0.00 | 93 | 1006.0 |
| 20260831224552 | 52 | 221 | 0.0 | 0.0 | 0.00 | 0.01 | 0.00 | 93 | 1006.0 |
| 20260831223052 | 53 | 221 | 0.0 | 0.0 | 0.00 | 0.01 | 0.00 | 92 | 1006.0 |
| 20260831221557 | 53 | 221 | 0.0 | 0.0 | 0.00 | 0.01 | 0.00 | 93 | 1006.1 |
| 20260831220058 | 53 | 221 | 0.0 | 0.0 | 0.00 | 0.01 | 0.00 | 92 | 1006.0 |
| 20260831214547 | 54 | 221 | 0.0 | 0.0 | 0.00 | 0.01 | 0.01 | 91 | 1005.9 |
| 20260831213044 | 54 | 221 | 0.0 | 0.0 | 0.00 | 0.01 | 0.01 | 90 | 1005.7 |
| 20260831211543 | 55 | 221 | 0.0 | 0.0 | 0.00 | 0.01 | 0.01 | 91 | 1005.7 |
| 20260831210041 | 55 | 221 | 0.0 | 0.0 | 0.00 | 0.01 | 0.01 | 91 | 1005.5 |
| 20260831204550 | 56 | 221 | 0.0 | 0.0 | 0.00 | 0.01 | 0.01 | 90 | 1005.4 |
| 20260831203041 | 56 | 221 | 0.0 | 0.0 | 0.00 | 0.01 | 0.01 | 90 | 1005.4 |
| 20260831201539 | 57 | 221 | 0.0 | 0.0 | 0.00 | 0.01 | 0.01 | 90 | 1005.4 |
| 20260831200044 | 57 | 221 | 0.0 | 0.0 | 0.00 | 0.01 | 0.01 | 89 | 1005.5 |
| 20260831194539 | 57 | 221 | 0.0 | 0.0 | 0.00 | 0.01 | 0.01 | 90 | 1005.4 |
| 20260831193041 | 58 | 221 | 0.0 | 0.0 | 0.00 | 0.01 | 0.01 | 88 | 1005.3 |
| 20260831191537 | 59 | 221 | 0.0 | 0.0 | 0.00 | 0.01 | 0.01 | 88 | 1005.2 |
| 20260831190043 | 61 | 221 | 0.0 | 0.0 | 0.00 | 0.01 | 0.01 | 85 | 1005.1 |
| 20260831184534 | 62 | 221 | 0.0 | 0.0 | 0.00 | 0.01 | 0.01 | 84 | 1005.1 |
| 20260831183032 | 62 | 221 | 0.0 | 0.0 | 0.00 | 0.01 | 0.01 | 84 | 1005.0 |
| 20260831181531 | 62 | 221 | 0.0 | 0.0 | 0.00 | 0.01 | 0.01 | 84 | 1004.9 |
| 20260831180042 | 63 | 222 | 0.0 | 0.0 | 0.00 | 0.01 | 0.01 | 83 | 1004.8 |
| 20260831174532 | 63 | 237 | 1.0 | 6.0 | 0.00 | 0.01 | 0.01 | 83 | 1004.9 |
| 20260831173029 | 63 | 214 | 2.0 | 4.0 | 0.00 | 0.01 | 0.01 | 82 | 1004.8 |
| 20260831171528 | 64 | 223 | 3.0 | 8.0 | 0.00 | 0.01 | 0.01 | 81 | 1004.8 |
| 20260831170028 | 64 | 205 | 0.0 | 5.0 | 0.00 | 0.01 | 0.01 | 81 | 1004.8 |
| 20260831164540 | 64 | 200 | 2.0 | 9.0 | 0.00 | 0.01 | 0.01 | 80 | 1004.7 |
| 20260831163026 | 65 | 210 | 4.0 | 8.0 | 0.00 | 0.01 | 0.01 | 80 | 1004.6 |
| 20260831161524 | 65 | 210 | 5.0 | 10.0 | 0.00 | 0.01 | 0.01 | 79 | 1004.5 |
| 20260831160024 | 66 | 200 | 4.0 | 11.0 | 0.00 | 0.01 | 0.01 | 79 | 1004.4 |
| 20260831154523 | 66 | 193 | 5.0 | 10.0 | 0.00 | 0.01 | 0.01 | 78 | 1004.4 |
| 20260831153022 | 67 | 200 | 6.0 | 11.0 | 0.00 | 0.01 | 0.01 | 77 | 1004.4 |
| 20260831151521 | 67 | 210 | 5.0 | 12.0 | 0.00 | 0.01 | 0.01 | 76 | 1004.4 |
| 20260831150020 | 69 | 247 | 5.0 | 11.0 | 0.00 | 0.01 | 0.01 | 74 | 1004.3 |
| 20260831144519 | 69 | 205 | 5.0 | 11.0 | 0.00 | 0.01 | 0.01 | 73 | 1004.1 |
| 20260831143021 | 69 | 227 | 4.0 | 9.0 | 0.00 | 0.01 | 0.01 | 73 | 1004.1 |
| 20260831141516 | 69 | 200 | 5.0 | 10.0 | 0.00 | 0.01 | 0.01 | 73 | 1004.1 |
| 20260831140016 | 69 | 210 | 3.0 | 12.0 | 0.00 | 0.01 | 0.01 | 73 | 1004.1 |
| 20260831134515 | 68 | 231 | 6.0 | 10.0 | 0.00 | 0.01 | 0.01 | 72 | 1004.1 |
| 20260831133014 | 69 | 200 | 6.0 | 11.0 | 0.00 | 0.01 | 0.01 | 72 | 1004.1 |
| 20260831131512 | 69 | 205 | 4.0 | 9.0 | 0.00 | 0.01 | 0.01 | 72 | 1004.0 |
| 20260831130013 | 67 | 210 | 5.0 | 9.0 | 0.00 | 0.01 | 0.01 | 72 | 1003.8 |
| 20260831124511 | 68 | 210 | 3.0 | 12.0 | 0.00 | 0.01 | 0.01 | 72 | 1003.8 |
| 20260831123010 | 69 | 205 | 5.0 | 11.0 | 0.00 | 0.01 | 0.01 | 69 | 1003.8 |
| 20260831121509 | 68 | 205 | 6.0 | 11.0 | 0.00 | 0.01 | 0.01 | 69 | 1003.7 |
| 20260831120015 | 68 | 190 | 5.0 | 11.0 | 0.00 | 0.01 | 0.01 | 71 | 1003.8 |
| 20260831114523 | 69 | 200 | 4.0 | 12.0 | 0.00 | 0.01 | 0.01 | 72 | 1003.8 |